TELSTAR 12V

Last updated on Thu Nov 06 2025 00:02:48 GMT+0000 (Coordinated Universal Time)

1 41036U 15068A 25309.02475367 -.00000107 00000+0 00000+0 0 9994 2 41036 0.0180 270.6734 0002718 324.1414 163.6217 1.00270027 36375
UTC large
Height (km)
Speed (km/s)
/
Latitude / Longitude
Inclination (degrees)
Orbital Period (minutes)
Azimuth
Elevation
Range (km)
Doppler Factor

Next 0 passes for location: London (51.5072 / 0.1276)

Sorry there are no passes over London.